Regional Weather Roundup
Issued by NWS

Home | Current Version | Previous Version | Graphics & Text | Print | Product List | Glossary On
Versions: 1 2 3 4 5 6 7 8 9 10 11 12 13 14 15 16 17 18 19 20 21 22 23 24 25 26 27 28 29 30 31 32 33 34 35 36 37 38 39 40 41 42 43 44 45 46 47 48 49 50
000
ASUS43 KLMK 310910
RWRKY
KENTUCKY REGIONAL WEATHER ROUNDUP
NATIONAL WEATHER SERVICE LOUISVILLE KY
500 AM EDT MON AUG 31 2015

NOTE "FAIR" INDICATES FEW OR NO CLOUDS BELOW 12,000 FEET
WITH NO SIGNIFICANT WEATHER AND/OR OBSTRUCTIONS TO VISIBILITY.

KYZ001>023-026-027-061>063-070>075-311000-
WESTERN AND SOUTH CENTRAL KENTUCKY

CITY           SKY/WX    TMP DP  RH WIND       PRES   REMARKS
PADUCAH        PTCLDY    66  65  96 CALM      30.05R FOG
HENDERSON      CLEAR     64  63  94 CALM      30.04F
OWENSBORO      CLEAR     68  67  96 CALM      30.07S
HOPKINSVILLE   CLEAR     67  65  95 CALM      30.07R
BOWLING GREEN  CLEAR     64  62  93 CALM      30.08S
GLASGOW        CLEAR     61  61 100 CALM      30.09S
$$

KYZ024-025-028>034-038-045-046-053-311000-
NORTH CENTRAL KENTUCKY

CITY           SKY/WX    TMP DP  RH WIND       PRES   REMARKS
LOUISVILLE/SDF MOCLDY    70  66  87 CALM      30.07S
LOUISVILLE/LOU CLEAR     68  66  93 CALM      30.08S
FORT KNOX      CLEAR     63  61  94 CALM      30.07S FOG
$$

KYZ035>037-039>044-047>052-055>060-089>105-311000-
NORTHEAST KENTUCKY

CITY           SKY/WX    TMP DP  RH WIND       PRES   REMARKS
LEXINGTON      MOCLDY    66  63  90 SE3       30.10R
COVINGTON      FAIR      67  66  97 CALM      30.08S
FRANKFORT      CLOUDY    65  63  93 CALM      30.08S
$$

KYZ054-064>069-076>088-106>120-311000-
SOUTHEAST KENTUCKY

CITY           SKY/WX    TMP DP  RH WIND       PRES   REMARKS
JACKSON        PTCLDY    68  66  93 CALM      30.11S
LONDON         CLOUDY    68  63  84 CALM      30.11S
SOMERSET       FOG       63  63 100 CALM      30.11S VSB<1/4
MIDDLESBORO    PTCLDY    64  63  98 CALM      30.13S
MONTICELLO     SUNNY     62  62 100 CALM      30.13S FOG
$$



USA.gov is the U.S. government's official web portal to all federal, state and local government web resources and services.